EN

Hourly Weather Dziuplina

Today, 28 October, Wednesday

Time Temperature Precipitation Wind Pressure Humidity
00:00 +8°C° 0 mm 2 mps 749 mmHg 82%
01:00 +7°C° 0 mm 2 mps 749 mmHg 84%
02:00 +7°C° 0 mm 2 mps 749 mmHg 85%
03:00 +7°C° 0 mm 2 mps 749 mmHg 85%
04:00 +7°C° 0 mm 3 mps 749 mmHg 86%
05:00 +7°C° 0 mm 3 mps 749 mmHg 86%
06:00 +7°C° 0 mm 3 mps 749 mmHg 87%
07:00 +7°C° 0 mm 3 mps 749 mmHg 86%
08:00 +8°C° 0 mm 3 mps 749 mmHg 79%
09:00 +10°C° 0 mm 3 mps 749 mmHg 71%
10:00 +12°C° 0 mm 4 mps 749 mmHg 63%
11:00 +13°C° 0 mm 4 mps 749 mmHg 58%
12:00 +14°C° 0 mm 4 mps 749 mmHg 52%
13:00 +15°C° 0 mm 5 mps 748 mmHg 47%
14:00 +14°C° 0 mm 4 mps 749 mmHg 52%
15:00 +13°C° 0 mm 4 mps 749 mmHg 57%
16:00 +12°C° 0 mm 3 mps 749 mmHg 63%
17:00 +12°C° 0 mm 3 mps 749 mmHg 65%
18:00 +11°C° 0 mm 4 mps 749 mmHg 67%
19:00 +11°C° 0 mm 4 mps 749 mmHg 70%
20:00 +10°C° 0 mm 4 mps 749 mmHg 73%
21:00 +10°C° 0 mm 4 mps 750 mmHg 77%
22:00 +9°C° 0 mm 3 mps 750 mmHg 80%
23:00 +9°C° 0 mm 3 mps 750 mmHg 81%

Tomorrow, 29 October, Thursday

Time Temperature Precipitation Wind Pressure Humidity
00:00 +9°C° 0 mm 3 mps 750 mmHg 82%
01:00 +9°C° 0 mm 3 mps 750 mmHg 84%
02:00 +8°C° 0 mm 4 mps 750 mmHg 83%
03:00 +8°C° 0 mm 4 mps 749 mmHg 83%
04:00 +8°C° 0 mm 5 mps 749 mmHg 82%
05:00 +8°C° 0 mm 5 mps 749 mmHg 82%
06:00 +8°C° 0 mm 5 mps 749 mmHg 82%
07:00 +8°C° 0 mm 5 mps 749 mmHg 82%
08:00 +9°C° 0 mm 5 mps 749 mmHg 79%
09:00 +10°C° 0 mm 6 mps 749 mmHg 77%
10:00 +11°C° 0 mm 6 mps 749 mmHg 75%
11:00 +11°C° 0.2 mm 6 mps 748 mmHg 76%
12:00 +11°C° 0.2 mm 6 mps 748 mmHg 76%
13:00 +11°C° 0.2 mm 6 mps 748 mmHg 77%
14:00 +10°C° 0.4 mm 5 mps 748 mmHg 76%
15:00 +10°C° 0.4 mm 5 mps 749 mmHg 76%
16:00 +10°C° 0.4 mm 4 mps 749 mmHg 76%
17:00 +10°C° 0.1 mm 4 mps 750 mmHg 77%
18:00 +8°C° 0.1 mm 5 mps 751 mmHg 78%
19:00 +7°C° 0.1 mm 5 mps 751 mmHg 79%
20:00 +7°C° 0 mm 5 mps 752 mmHg 79%
21:00 +7°C° 0 mm 5 mps 752 mmHg 80%
22:00 +7°C° 0 mm 5 mps 753 mmHg 80%
23:00 +6°C° 0 mm 4 mps 753 mmHg 82%

Day after tomorrow, 30 October, Friday

Time Temperature Precipitation Wind Pressure Humidity
00:00 +6°C° 0 mm 4 mps 753 mmHg 83%
01:00 +5°C° 0 mm 4 mps 754 mmHg 85%
02:00 +5°C° 0 mm 4 mps 754 mmHg 86%
03:00 +4°C° 0 mm 3 mps 754 mmHg 86%
04:00 +4°C° 0 mm 3 mps 754 mmHg 87%
05:00 +4°C° 0 mm 3 mps 754 mmHg 86%
06:00 +4°C° 0 mm 3 mps 754 mmHg 85%
07:00 +4°C° 0 mm 3 mps 754 mmHg 84%
08:00 +5°C° 0.1 mm 3 mps 754 mmHg 83%
09:00 +7°C° 0.1 mm 3 mps 753 mmHg 82%
10:00 +7°C° 0.1 mm 4 mps 753 mmHg 80%
11:00 +7°C° 0.5 mm 4 mps 753 mmHg 84%
12:00 +7°C° 0.5 mm 4 mps 752 mmHg 87%
13:00 +7°C° 0.5 mm 4 mps 752 mmHg 90%
14:00 +8°C° 0.7 mm 4 mps 751 mmHg 91%
15:00 +10°C° 0.7 mm 4 mps 751 mmHg 91%
16:00 +9°C° 0.7 mm 5 mps 751 mmHg 92%
17:00 +10°C° 0.7 mm 5 mps 751 mmHg 92%
18:00 +10°C° 0.7 mm 6 mps 751 mmHg 92%
19:00 +10°C° 0.7 mm 6 mps 750 mmHg 93%
20:00 +11°C° 0.8 mm 6 mps 751 mmHg 92%
21:00 +11°C° 0.8 mm 7 mps 751 mmHg 92%
22:00 +11°C° 0.8 mm 7 mps 751 mmHg 92%
23:00 +11°C° 0.4 mm 7 mps 751 mmHg 92%

31 October, Saturday

Time Temperature Precipitation Wind Pressure Humidity
00:00 +11°C° 0.4 mm 7 mps 751 mmHg 92%
01:00 +11°C° 0.4 mm 7 mps 752 mmHg 92%
02:00 +11°C° 0.7 mm 6 mps 752 mmHg 93%
03:00 +12°C° 0.7 mm 5 mps 753 mmHg 94%
04:00 +12°C° 0.7 mm 5 mps 753 mmHg 94%
05:00 +11°C° 0.4 mm 4 mps 754 mmHg 94%
06:00 +10°C° 0.4 mm 3 mps 754 mmHg 93%
07:00 +10°C° 0.4 mm 3 mps 755 mmHg 93%
08:00 +9°C° 0.1 mm 3 mps 755 mmHg 91%
09:00 +9°C° 0.1 mm 2 mps 756 mmHg 89%
10:00 +9°C° 0.1 mm 2 mps 756 mmHg 87%
11:00 +10°C° 0 mm 2 mps 756 mmHg 83%
12:00 +10°C° 0 mm 2 mps 756 mmHg 78%
13:00 +12°C° 0 mm 2 mps 757 mmHg 73%
14:00 +12°C° 0 mm 1 mps 757 mmHg 75%
15:00 +11°C° 0 mm 1 mps 757 mmHg 76%
16:00 +11°C° 0 mm 1 mps 757 mmHg 78%
17:00 +11°C° 0 mm 1 mps 757 mmHg 79%
18:00 +9°C° 0 mm 2 mps 757 mmHg 81%
19:00 +8°C° 0 mm 2 mps 757 mmHg 82%
20:00 +8°C° 0 mm 2 mps 757 mmHg 82%
21:00 +8°C° 0 mm 3 mps 757 mmHg 82%
22:00 +7°C° 0 mm 3 mps 757 mmHg 82%
23:00 +7°C° 0 mm 3 mps 757 mmHg 83%

1 November, Sunday

Time Temperature Precipitation Wind Pressure Humidity
00:00 +5°C° 0 mm 3 mps 757 mmHg 84%
01:00 +5°C° 0 mm 3 mps 757 mmHg 84%
02:00 +5°C° 0 mm 3 mps 757 mmHg 85%
03:00 +5°C° 0 mm 4 mps 757 mmHg 85%
04:00 +5°C° 0 mm 4 mps 756 mmHg 86%
05:00 +4°C° 0 mm 4 mps 756 mmHg 86%
06:00 +4°C° 0 mm 4 mps 756 mmHg 86%
07:00 +4°C° 0 mm 4 mps 756 mmHg 86%
08:00 +5°C° 0 mm 4 mps 756 mmHg 80%
09:00 +7°C° 0 mm 4 mps 756 mmHg 74%
10:00 +8°C° 0 mm 4 mps 756 mmHg 68%
11:00 +10°C° 0 mm 4 mps 755 mmHg 66%
12:00 +11°C° 0 mm 4 mps 755 mmHg 63%
13:00 +13°C° 0 mm 4 mps 755 mmHg 61%
14:00 +12°C° 0 mm 4 mps 755 mmHg 64%
15:00 +11°C° 0 mm 4 mps 754 mmHg 68%
16:00 +10°C° 0 mm 4 mps 754 mmHg 72%
17:00 +10°C° 0 mm 4 mps 754 mmHg 75%
18:00 +8°C° 0 mm 4 mps 754 mmHg 78%
19:00 +8°C° 0 mm 3 mps 754 mmHg 81%
20:00 +8°C° 0 mm 3 mps 754 mmHg 81%
21:00 +8°C° 0 mm 3 mps 754 mmHg 82%
22:00 +8°C° 0 mm 3 mps 754 mmHg 82%
23:00 +8°C° 0 mm 3 mps 754 mmHg 82%

2 November, Monday

Time Temperature Precipitation Wind Pressure Humidity
00:00 +7°C° 0 mm 3 mps 754 mmHg 83%
01:00 +7°C° 0 mm 3 mps 754 mmHg 83%
02:00 +7°C° 0 mm 3 mps 754 mmHg 84%
03:00 +7°C° 0 mm 3 mps 753 mmHg 85%
04:00 +7°C° 0 mm 3 mps 753 mmHg 86%
05:00 +7°C° 0 mm 3 mps 753 mmHg 86%
06:00 +7°C° 0 mm 3 mps 753 mmHg 86%
07:00 +7°C° 0 mm 3 mps 753 mmHg 86%
08:00 +8°C° 0 mm 3 mps 753 mmHg 82%
09:00 +9°C° 0 mm 3 mps 753 mmHg 78%
10:00 +11°C° 0 mm 3 mps 753 mmHg 75%
11:00 +11°C° 0 mm 3 mps 753 mmHg 75%
12:00 +11°C° 0 mm 3 mps 753 mmHg 74%
13:00 +11°C° 0 mm 3 mps 753 mmHg 74%
14:00 +11°C° 0 mm 3 mps 753 mmHg 75%
15:00 +11°C° 0 mm 3 mps 752 mmHg 76%
16:00 +11°C° 0 mm 3 mps 752 mmHg 76%
17:00 +11°C° 0 mm 3 mps 752 mmHg 77%
18:00 +11°C° 0 mm 3 mps 752 mmHg 78%
19:00 +11°C° 0 mm 3 mps 752 mmHg 78%
20:00 +11°C° 0 mm 3 mps 752 mmHg 78%
21:00 +11°C° 0 mm 3 mps 752 mmHg 77%
22:00 +11°C° 0 mm 3 mps 752 mmHg 77%
23:00 +11°C° 0.1 mm 3 mps 752 mmHg 77%
Show more